Tracking 35331 objects as of 17-Sep-2026
HD Live streaming from Space Station
objects crossing your sky now

STARLINK-37180

Track STARLINK-37180 now!
10-day predictions
STARLINK-37180 is classified as:


NORAD ID: 68333
Int'l Code: 2026-059N
Launch date: March 22, 2026
Source: United States (US)
Launch site: AIR FORCE EASTERN TEST RANGE (AFETR)
Your satellite tracking list
Your tracking list is empty




NASA's NSSDC Master Catalog

Two Line Element Set (TLE):
1 68333U 26059N   26259.04339458  .00026660  00000-0  79681-3 0  9999
2 68333  53.1585 176.7136 0001857  92.6574 267.4641 15.34422228 27425
Source of the keplerian elements: AFSPC